Weather History for Mobridge, SD

Change the Weather History Date:

Thursday, April 11, 2013

  Actual Average Record
Temperature  
Mean Temperature 28 °F 44 °F  
Max Temperature 31 °F 56 °F 88 °F (1911)
Min Temperature 24 °F 31 °F 11 °F (1997)
Degree Days  
Heating Degree Days 37 22  
Month to date heating degree days 342 262  
Since 1 July heating degree days 7366 7264  
Cooling Degree Days 0 0  
Month to date cooling degree days 0 0  
Year to date cooling degree days 0 0  
Moisture  
Dew Point 25 °F    
Average Humidity 85    
Maximum Humidity 92    
Minimum Humidity 78    
Precipitation  
Precipitation 0.21 in 0.04 in 1.19 in (2005)
Month to date precipitation 0.26 0.38  
Year to date precipitation 1.60 2.01  
Snow  
Snow 0.00 in - - ()
Month to date snowfall T  
Since 1 July snowfall 29.0  
Snow Depth T in    
Sea Level Pressure  
Sea Level Pressure 29.82 in    
Wind  
Wind Speed 12 mph (NNE)    
Max Wind Speed 18 mph    
Max Gust Speed 23 mph    
Visibility 4 miles    
Events Fog , Snow    
T = Trace of Precipitation, MM = Missing Value Source: NWS Daily Summary

Daily Weather History Graph

Daily Weather History Graph

Search for Another Location

Airport:

Trip Planner

Search our weather history database for the weather conditions in past years. The results will help you decide how hot, cold, wet, or windy it might be!

Date:

Astronomy

Apr. 11, 2013 Rise Set
Actual Time 7:02 AM CDT 8:23 PM CDT
Civil Twilight 6:32 AM CDT 8:53 PM CDT
Nautical Twilight 5:55 AM CDT 9:31 PM CDT
Astronomical Twilight 5:15 AM CDT 10:10 PM CDT
Moon 7:31 AM CDT (4/11) 10:05 PM CDT (4/11)
Length of Visible Light 14h 21m
Length of Day
13h 20m
New Moon, 2% of the Moon is Illuminated
Apr 11
New Moon
Apr 18
First Quarter
Apr 25
Full
May 2
Last Quarter
May 9
New

Hourly Weather History & Observations

Time (CDT) Temp. Windchill Dew Point Humidity Pressure Visibility Wind Dir Wind Speed Gust Speed Precip Events Conditions
12:52 AM 28.0 °F 17.0 °F 18.0 °F 66% 30.03 in 9.0 mi NE 13.8 mph - 0.00 in Snow Light Snow
1:52 AM 26.1 °F 14.5 °F 21.0 °F 81% 30.00 in 9.0 mi NNE 13.8 mph - 0.00 in   Overcast
2:52 AM 26.1 °F 14.5 °F 21.9 °F 84% 29.96 in 10.0 mi North 13.8 mph - 0.00 in   Overcast
3:52 AM 25.0 °F 13.1 °F 21.0 °F 85% 29.91 in 4.0 mi North 13.8 mph - 0.00 in Snow Light Snow
4:26 AM 24.8 °F 12.9 °F 21.2 °F 86% 29.83 in 4.0 mi North 13.8 mph - 0.00 in Snow Light Snow
4:52 AM 24.1 °F 12.5 °F 21.0 °F 88% 29.89 in 9.0 mi North 12.7 mph - 0.00 in   Overcast
5:04 AM 24.8 °F 14.6 °F 21.2 °F 86% 29.82 in 10.0 mi North 10.4 mph - N/A   Overcast
5:30 AM 24.8 °F 13.4 °F 21.2 °F 86% 29.81 in 10.0 mi North 12.7 mph - N/A   Overcast
5:52 AM 26.1 °F 15.0 °F 23.0 °F 88% 29.86 in 10.0 mi North 12.7 mph - N/A   Overcast
6:09 AM 26.6 °F 15.7 °F 23.0 °F 86% 29.80 in 10.0 mi NNE 12.7 mph - N/A   Overcast
6:52 AM 27.0 °F 16.7 °F 23.0 °F 85% 29.86 in 10.0 mi NNE 11.5 mph - N/A   Overcast
7:06 AM 26.6 °F 16.2 °F 23.0 °F 86% 29.80 in 10.0 mi NNE 11.5 mph - N/A   Overcast
7:52 AM 27.0 °F 16.1 °F 23.0 °F 85% 29.86 in 7.0 mi North 12.7 mph - N/A   Overcast
8:12 AM 26.6 °F 16.2 °F 24.8 °F 93% 29.80 in 7.0 mi NNE 11.5 mph - N/A   Overcast
8:52 AM 28.0 °F 16.5 °F 24.1 °F 85% 29.86 in 2.5 mi North 15.0 mph - 0.00 in Snow Light Snow
9:03 AM 26.6 °F 14.3 °F 24.8 °F 93% 29.79 in 3.0 mi North 16.1 mph - 0.00 in Snow Light Snow
9:11 AM 28.4 °F 18.5 °F 24.8 °F 86% 29.79 in 4.0 mi North 11.5 mph - 0.00 in   Overcast
9:41 AM 28.4 °F 17.0 °F 24.8 °F 86% 29.79 in 7.0 mi NNE 15.0 mph - 0.00 in   Overcast
9:50 AM 28.4 °F 17.5 °F 24.8 °F 86% 29.78 in 7.0 mi North 13.8 mph - 0.00 in   Overcast
9:52 AM 28.0 °F 15.7 °F 25.0 °F 88% 29.85 in 7.0 mi North 17.3 mph 21.9 mph 0.00 in   Overcast
10:01 AM 28.4 °F 17.0 °F 24.8 °F 86% 29.78 in 6.0 mi North 15.0 mph - N/A   Overcast
10:29 AM 30.2 °F 19.3 °F 24.8 °F 80% 29.78 in 10.0 mi NNE 15.0 mph - N/A   Overcast
10:52 AM 30.0 °F 18.3 °F 25.0 °F 82% 29.84 in 9.0 mi NNE 17.3 mph - N/A   Overcast
11:37 AM 30.2 °F 19.3 °F 26.6 °F 86% 29.78 in 8.0 mi NNE 15.0 mph - 0.00 in   Overcast
11:52 AM 30.9 °F 19.8 °F 25.0 °F 79% 29.84 in 10.0 mi NNE 16.1 mph - 0.00 in   Overcast
12:06 PM 30.2 °F 20.2 °F 24.8 °F 80% 29.79 in 10.0 mi NE 12.7 mph 20.7 mph N/A   Overcast
12:16 PM 30.2 °F 18.9 °F 24.8 °F 80% 29.78 in 1.8 mi NNE 16.1 mph - 0.00 in Snow Light Snow
12:23 PM 30.2 °F 20.2 °F 24.8 °F 80% 29.79 in 0.8 mi NNE 12.7 mph - 0.00 in Snow Light Snow
12:36 PM 30.2 °F 19.8 °F 26.6 °F 86% 29.79 in 0.5 mi NNE 13.8 mph - 0.01 in Fog , Snow Snow
12:43 PM 30.2 °F 19.8 °F 26.6 °F 86% 29.78 in 0.5 mi NNE 13.8 mph - 0.02 in Fog , Snow Light Snow
12:52 PM 30.0 °F 18.3 °F 26.1 °F 85% 29.84 in 0.8 mi NE 17.3 mph 23.0 mph 0.02 in Snow Light Snow
1:18 PM 30.2 °F 19.8 °F 26.6 °F 86% 29.78 in 1.2 mi North 13.8 mph - 0.01 in Snow Light Snow
1:52 PM 30.0 °F 19.1 °F 26.1 °F 85% 29.83 in 1.0 mi NNE 15.0 mph - 0.02 in Snow Light Snow
2:05 PM 28.4 °F 16.6 °F 26.6 °F 93% 29.77 in 0.8 mi NNE 16.1 mph - 0.01 in Snow Light Snow
2:40 PM 28.4 °F 17.0 °F 24.8 °F 86% 29.76 in 1.2 mi NNE 15.0 mph - 0.01 in Snow Light Snow
2:52 PM 28.9 °F 18.2 °F 26.1 °F 89% 29.82 in 1.2 mi NNE 13.8 mph - 0.01 in Snow Light Snow
3:20 PM 28.4 °F 17.0 °F 26.6 °F 93% 29.75 in 1.0 mi NNE 15.0 mph - 0.01 in Snow Light Snow
3:37 PM 28.4 °F 17.0 °F 26.6 °F 93% 29.75 in 0.5 mi NNE 15.0 mph - 0.02 in Fog , Snow Snow
3:39 PM 28.4 °F 17.0 °F 26.6 °F 93% 29.76 in 0.5 mi NNE 15.0 mph - 0.02 in Fog , Snow Snow
3:52 PM 28.9 °F 18.6 °F 25.0 °F 85% 29.83 in 0.5 mi NE 12.7 mph - 0.03 in Fog , Snow Snow
4:07 PM 28.4 °F 18.0 °F 26.6 °F 93% 29.76 in 0.5 mi NE 12.7 mph - 0.01 in Fog , Snow Snow
4:52 PM 28.9 °F 18.6 °F 26.1 °F 89% 29.83 in 0.5 mi NNE 12.7 mph - 0.04 in Fog , Snow Snow
4:58 PM 28.4 °F 18.0 °F 26.6 °F 93% 29.77 in 1.0 mi NNE 12.7 mph - 0.00 in Snow Light Snow
5:11 PM 28.4 °F 19.1 °F 26.6 °F 93% 29.77 in 0.8 mi NNE 10.4 mph - 0.00 in Snow Light Snow
5:25 PM 28.4 °F 19.1 °F 26.6 °F 93% 29.77 in 0.5 mi NNE 10.4 mph - 0.01 in Fog , Snow Snow
5:34 PM 30.2 °F 21.3 °F 26.6 °F 86% 29.78 in 0.5 mi North 10.4 mph - 0.02 in Fog , Snow Snow
5:52 PM 28.9 °F 19.8 °F 26.1 °F 89% 29.85 in 0.5 mi North 10.4 mph - 0.03 in Fog , Snow Snow
6:17 PM 28.4 °F 19.7 °F 26.6 °F 93% 29.79 in 0.8 mi North 9.2 mph - 0.02 in Snow Light Snow
6:23 PM 30.2 °F 21.9 °F 26.6 °F 86% 29.79 in 1.0 mi North 9.2 mph - 0.02 in Snow Light Snow
6:52 PM 28.9 °F 20.4 °F 26.1 °F 89% 29.87 in 1.2 mi North 9.2 mph - 0.03 in Snow Light Snow
7:09 PM 28.4 °F 19.1 °F 26.6 °F 93% 29.80 in 2.5 mi North 10.4 mph - 0.01 in Snow Light Snow
7:16 PM 28.4 °F 21.2 °F 26.6 °F 93% 29.80 in 3.0 mi North 6.9 mph - 0.01 in Snow Light Snow
7:26 PM 28.4 °F 19.7 °F 26.6 °F 93% 29.80 in 2.5 mi North 9.2 mph - 0.01 in Snow Light Snow
7:37 PM 28.4 °F 20.4 °F 26.6 °F 93% 29.80 in 1.5 mi North 8.1 mph - 0.01 in Snow Light Snow
7:44 PM 28.4 °F 20.4 °F 26.6 °F 93% 29.81 in 2.0 mi North 8.1 mph - 0.01 in Snow Light Snow
7:52 PM 28.9 °F 22.8 °F 27.0 °F 92% 29.87 in 1.8 mi North 5.8 mph - 0.01 in Snow Light Snow
8:02 PM 28.4 °F 19.7 °F 26.6 °F 93% 29.81 in 1.2 mi NNE 9.2 mph - 0.00 in Snow Light Snow
8:14 PM 28.4 °F 21.2 °F 24.8 °F 86% 29.81 in 1.2 mi NE 6.9 mph - 0.01 in Snow Light Snow
8:24 PM 28.4 °F 20.4 °F 24.8 °F 86% 29.81 in 1.5 mi NNE 8.1 mph - 0.01 in Snow Light Snow
8:37 PM 28.4 °F 20.4 °F 24.8 °F 86% 29.81 in 2.0 mi NNE 8.1 mph - 0.01 in Snow Light Snow
8:48 PM 28.4 °F 20.4 °F 24.8 °F 86% 29.82 in 1.5 mi NNE 8.1 mph - 0.01 in Snow Light Snow
8:52 PM 28.0 °F 20.0 °F 25.0 °F 88% 29.88 in 1.5 mi NNE 8.1 mph - 0.01 in Snow Light Snow
9:01 PM 28.4 °F 20.4 °F 24.8 °F 86% 29.82 in 3.0 mi NNE 8.1 mph - 0.00 in Snow Light Snow
9:42 PM 26.6 °F 21.2 °F 24.8 °F 93% 29.83 in 4.0 mi NNE 4.6 mph - 0.01 in Snow Light Snow
9:52 PM 27.0 °F 21.6 °F 25.0 °F 92% 29.90 in 4.0 mi NNE 4.6 mph - 0.01 in Snow Light Snow
10:06 PM 26.6 °F 19.1 °F 24.8 °F 93% 29.83 in 8.0 mi North 6.9 mph - 0.00 in Snow Light Snow
10:21 PM 26.6 °F 20.0 °F 24.8 °F 93% 29.84 in 10.0 mi NNE 5.8 mph - 0.00 in   Overcast
10:52 PM 27.0 °F 20.5 °F 24.1 °F 89% 29.90 in 8.0 mi North 5.8 mph - 0.00 in Snow Light Snow
11:52 PM 27.0 °F 20.5 °F 24.1 °F 89% 29.90 in 7.0 mi NNW 5.8 mph - 0.00 in Snow Light Snow